This is the latest recevied weather packets stored in our database for station/object KJ6APE. If no packets are shown the sender has not sent any weather packets the latest 1 day(s).
| Time | Temp. | Humidity | Pressure | Rain* | Wind** | Luminosity | Snow |
|---|---|---|---|---|---|---|---|
| 1778011830 | 16.67° C | 72% | 1016.1 hPa | 0 mm | 0.45 m/s, 116° | 176 W/m² | - |
| 1778011527 | 16.67° C | 70% | 1016.1 hPa | 0 mm | 0.89 m/s, 109° | 173 W/m² | - |
| 1778011224 | 16.67° C | 70% | 1016.3 hPa | 0 mm | 0.45 m/s, 92° | 150 W/m² | - |
| 1778010920 | 16.11° C | 72% | 1016.3 hPa | 0 mm | 0 m/s | 169 W/m² | - |
| 1778010618 | 16.11° C | 72% | 1016.4 hPa | 0 mm | 0.45 m/s, 108° | 197 W/m² | - |
| 1778010316 | 16.67° C | 70% | 1016.3 hPa | 0 mm | 0.45 m/s, 66° | 205 W/m² | - |
| 1778010016 | 16.67° C | 71% | 1016.1 hPa | 0 mm | 0.45 m/s, 78° | 202 W/m² | - |
| 1778009714 | 16.67° C | 71% | 1016.3 hPa | 0 mm | 0 m/s | 201 W/m² | - |
| 1778009411 | 16.67° C | 72% | 1016.3 hPa | 0 mm | 0 m/s | 208 W/m² | - |
| 1778009109 | 16.11° C | 72% | 1016.2 hPa | 0 mm | 0 m/s | 206 W/m² | - |
| 1778008806 | 16.11° C | 74% | 1016.2 hPa | 0 mm | 0 m/s | 186 W/m² | - |
| 1778008504 | 16.11° C | 74% | 1016.1 hPa | 0 mm | 0 m/s | 208 W/m² | - |
| 1778008202 | 16.11° C | 73% | 1016.4 hPa | 0 mm | 0.45 m/s, 97° | 193 W/m² | - |
| 1778007896 | 16.11° C | 72% | 1016.4 hPa | 0 mm | 0.45 m/s, 31° | 184 W/m² | - |
| 1778007592 | 16.11° C | 73% | 1016.2 hPa | 0 mm | 0 m/s | 251 W/m² | - |
| 1778007290 | 16.11° C | 72% | 1016.1 hPa | 0 mm | 0 m/s | 258 W/m² | - |
| 1778006986 | 16.67° C | 72% | 1016.1 hPa | 0 mm | 0.45 m/s, 75° | 285 W/m² | - |
| 1778006683 | 16.11° C | 74% | 1016.2 hPa | 0 mm | 0.45 m/s, 78° | 491 W/m² | - |
| 1778006379 | 15.56° C | 75% | 1016.1 hPa | 0 mm | 0.89 m/s, 45° | 447 W/m² | - |
| 1778006076 | 15° C | 76% | 1016.1 hPa | 0 mm | 0.45 m/s, 56° | 243 W/m² | - |
| 1778005773 | 15° C | 75% | 1016.1 hPa | 0 mm | 0.89 m/s, 282° | 219 W/m² | - |
| 1778005470 | 15° C | 75% | 1015.9 hPa | 0 mm | 0.45 m/s, 87° | 194 W/m² | - |
| 1778005166 | 15° C | 76% | 1016.2 hPa | 0 mm | 1.34 m/s, 167° | 213 W/m² | - |
| 1778004864 | 15° C | 75% | 1016.2 hPa | 0 mm | 0 m/s | 148 W/m² | - |
| 1778004560 | 15° C | 77% | 1016.3 hPa | 0 mm | 0.45 m/s, 51° | 185 W/m² | - |
* Rain latest hour (hover to see other rain measurements)
** Current wind speed in m/s (hover to see current wind gust speed)